TimeCDT,TemperatureF,Dew PointF,Humidity,Sea Level PressureIn,VisibilityMPH,Wind Direction,Wind SpeedMPH,Gust SpeedMPH,PrecipitationIn,Events,Conditions,WindDirDegrees,DateUTC
12:13 AM,38.8,38.3,98,30.19,3.0,NNE,4.6,-,N/A,,Overcast,20,2013-05-05 05:13:00
12:33 AM,39.0,38.3,97,30.19,3.0,NNE,5.8,-,N/A,,Overcast,30,2013-05-05 05:33:00
12:53 AM,38.8,38.3,98,30.19,4.0,NNE,4.6,-,N/A,,Overcast,30,2013-05-05 05:53:00
1:13 AM,38.8,38.3,98,30.19,4.0,NNE,5.8,-,N/A,,Overcast,30,2013-05-05 06:13:00
1:33 AM,39.0,38.3,97,30.19,4.0,NE,4.6,-,N/A,,Overcast,40,2013-05-05 06:33:00
1:52 AM,38.8,38.3,98,30.18,7.0,NNE,3.5,-,N/A,,Overcast,30,2013-05-05 06:52:00
2:13 AM,39.2,38.3,97,30.18,7.0,Calm,Calm,-,N/A,,Overcast,0,2013-05-05 07:13:00
2:33 AM,39.0,38.3,97,30.18,2.5,Calm,Calm,-,N/A,,Overcast,0,2013-05-05 07:33:00
2:53 AM,38.8,38.3,98,30.18,1.2,North,3.5,-,N/A,,Overcast,360,2013-05-05 07:53:00
3:12 AM,38.7,38.3,99,30.17,1.2,North,3.5,-,N/A,,Overcast,10,2013-05-05 08:12:00
3:33 AM,38.7,38.3,99,30.17,1.8,North,4.6,-,N/A,,Overcast,10,2013-05-05 08:33:00
3:53 AM,38.7,38.3,99,30.17,5.0,North,4.6,-,N/A,,Overcast,360,2013-05-05 08:53:00
4:13 AM,38.5,37.9,98,30.17,5.0,North,4.6,-,N/A,,Overcast,10,2013-05-05 09:13:00
4:33 AM,38.5,37.9,98,30.17,5.0,North,5.8,-,N/A,,Overcast,10,2013-05-05 09:33:00
4:53 AM,38.3,37.6,97,30.17,7.0,North,5.8,-,N/A,,Overcast,360,2013-05-05 09:53:00
5:13 AM,38.3,37.4,97,30.18,10.0,North,4.6,-,N/A,,Overcast,10,2013-05-05 10:13:00
5:33 AM,38.3,37.4,97,30.18,7.0,North,5.8,-,N/A,,Overcast,10,2013-05-05 10:33:00
5:53 AM,38.1,37.2,97,30.18,10.0,North,6.9,-,N/A,,Overcast,10,2013-05-05 10:53:00
6:13 AM,37.9,37.0,97,30.18,10.0,North,6.9,-,N/A,,Overcast,360,2013-05-05 11:13:00
6:33 AM,37.9,36.9,96,30.18,10.0,NNE,8.1,-,N/A,,Light Drizzle,30,2013-05-05 11:33:00
6:53 AM,37.8,36.7,96,30.19,10.0,NNE,4.6,-,N/A,,Overcast,20,2013-05-05 11:53:00
7:13 AM,37.9,36.9,96,30.19,10.0,North,3.5,-,N/A,,Overcast,10,2013-05-05 12:13:00
7:33 AM,38.5,37.4,96,30.19,10.0,North,4.6,-,N/A,,Overcast,350,2013-05-05 12:33:00
7:53 AM,38.8,36.9,93,30.19,10.0,NNE,6.9,-,N/A,,Overcast,20,2013-05-05 12:53:00
8:13 AM,39.0,36.9,92,30.19,10.0,North,6.9,-,N/A,,Overcast,360,2013-05-05 13:13:00
8:33 AM,38.8,36.7,92,30.19,10.0,North,5.8,-,N/A,,Overcast,360,2013-05-05 13:33:00
8:53 AM,39.2,37.4,93,30.19,10.0,North,4.6,-,N/A,,Overcast,360,2013-05-05 13:53:00
9:13 AM,39.2,37.8,95,30.19,7.0,North,5.8,-,N/A,,Overcast,10,2013-05-05 14:13:00
9:33 AM,39.4,37.9,95,30.19,5.0,NNE,6.9,-,N/A,,Overcast,20,2013-05-05 14:33:00
9:53 AM,40.1,38.7,95,30.19,7.0,North,5.8,-,N/A,,Overcast,10,2013-05-05 14:53:00
10:13 AM,41.4,38.7,90,30.18,10.0,NNE,5.8,-,N/A,,Overcast,20,2013-05-05 15:13:00
10:33 AM,42.1,38.7,88,30.18,10.0,North,5.8,-,N/A,,Overcast,360,2013-05-05 15:33:00
10:58 AM,43.5,39.4,85,30.18,10.0,North,5.8,-,N/A,,Overcast,350,2013-05-05 15:58:00
11:13 AM,43.9,39.6,85,30.18,10.0,North,4.6,-,N/A,,Overcast,10,2013-05-05 16:13:00
11:33 AM,45.5,40.1,81,30.18,10.0,North,4.6,-,N/A,,Overcast,10,2013-05-05 16:33:00
11:53 AM,46.9,40.5,78,30.18,10.0,NNE,5.8,-,N/A,,Overcast,30,2013-05-05 16:53:00
12:13 PM,48.2,41.0,76,30.18,10.0,NNE,3.5,-,N/A,,Overcast,30,2013-05-05 17:13:00
12:33 PM,48.4,41.7,78,30.17,10.0,NNE,4.6,-,N/A,,Overcast,20,2013-05-05 17:33:00
1:13 PM,50.0,42.3,75,30.17,10.0,North,4.6,-,N/A,,Overcast,350,2013-05-05 18:13:00
1:33 PM,51.6,43.2,73,30.16,10.0,North,5.8,-,N/A,,Overcast,360,2013-05-05 18:33:00
1:53 PM,52.0,43.3,72,30.16,10.0,NNW,6.9,-,N/A,,Overcast,330,2013-05-05 18:53:00
2:13 PM,52.2,43.5,72,30.16,10.0,WNW,6.9,-,N/A,,Overcast,300,2013-05-05 19:13:00
2:33 PM,52.7,43.7,71,30.16,10.0,WNW,6.9,-,N/A,,Overcast,300,2013-05-05 19:33:00
2:53 PM,53.6,44.1,70,30.14,10.0,WNW,6.9,-,N/A,,Mostly Cloudy,300,2013-05-05 19:53:00
3:13 PM,54.9,45.0,69,30.14,10.0,West,6.9,-,N/A,,Scattered Clouds,280,2013-05-05 20:13:00
3:33 PM,55.4,45.1,68,30.14,10.0,West,9.2,-,N/A,,Scattered Clouds,280,2013-05-05 20:33:00
3:53 PM,55.9,45.3,68,30.12,10.0,NW,9.2,-,N/A,,Scattered Clouds,310,2013-05-05 20:53:00
4:13 PM,56.3,45.7,68,30.12,10.0,WNW,6.9,-,N/A,,Scattered Clouds,300,2013-05-05 21:13:00
4:33 PM,55.9,45.7,68,30.11,10.0,WNW,8.1,-,N/A,,Clear,290,2013-05-05 21:33:00
4:53 PM,55.9,45.9,69,30.11,10.0,WNW,8.1,-,N/A,,Scattered Clouds,290,2013-05-05 21:53:00
5:13 PM,56.1,45.9,68,30.12,10.0,West,8.1,-,N/A,,Overcast,270,2013-05-05 22:13:00
5:33 PM,55.8,46.2,70,30.12,10.0,WNW,8.1,-,N/A,,Overcast,290,2013-05-05 22:33:00
5:53 PM,55.2,46.2,72,30.11,10.0,WNW,6.9,-,N/A,,Overcast,300,2013-05-05 22:53:00
6:13 PM,54.5,45.9,73,30.12,10.0,WNW,8.1,-,N/A,,Overcast,300,2013-05-05 23:13:00
6:33 PM,54.0,45.7,74,30.12,10.0,West,6.9,-,N/A,,Overcast,280,2013-05-05 23:33:00
6:53 PM,53.8,45.7,74,30.11,10.0,WNW,5.8,-,N/A,,Overcast,300,2013-05-05 23:53:00
7:13 PM,53.6,45.7,75,30.11,10.0,WNW,6.9,-,N/A,,Overcast,290,2013-05-06 00:13:00
7:33 PM,53.6,45.9,75,30.11,10.0,WNW,3.5,-,N/A,,Overcast,290,2013-05-06 00:33:00
7:53 PM,53.2,46.0,77,30.11,10.0,West,4.6,-,N/A,Rain,Light Rain,280,2013-05-06 00:53:00
8:13 PM,52.2,46.8,82,30.11,10.0,WNW,3.5,-,N/A,,Overcast,290,2013-05-06 01:13:00
8:33 PM,51.8,46.8,83,30.11,10.0,Calm,Calm,-,N/A,,Overcast,0,2013-05-06 01:33:00
8:53 PM,50.7,46.6,86,30.11,10.0,West,3.5,-,N/A,,Overcast,270,2013-05-06 01:53:00
9:33 PM,47.8,44.8,89,30.11,10.0,West,3.5,-,N/A,,Scattered Clouds,280,2013-05-06 02:33:00
9:53 PM,48.4,45.3,89,30.11,10.0,WNW,4.6,-,N/A,,Clear,290,2013-05-06 02:53:00
10:13 PM,46.9,43.3,87,30.11,10.0,West,3.5,-,N/A,,Clear,270,2013-05-06 03:13:00
10:33 PM,44.6,42.3,91,30.11,10.0,West,4.6,-,N/A,,Clear,270,2013-05-06 03:33:00
10:52 PM,43.7,41.9,93,30.11,10.0,West,3.5,-,N/A,,Clear,270,2013-05-06 03:52:00
11:13 PM,43.2,41.2,93,30.12,10.0,West,4.6,-,N/A,,Clear,270,2013-05-06 04:13:00
11:33 PM,42.1,40.3,93,30.12,10.0,West,3.5,-,N/A,,Clear,280,2013-05-06 04:33:00
11:53 PM,41.9,40.5,95,30.12,10.0,West,3.5,-,N/A,,Clear,280,2013-05-06 04:53:00